PulseSat

PulseSat

MOLNIYA 3-27

Last updated on April 20, 2019, 3:02 a.m. UTC

1 16393U 85117A   19108.05348252  .00000254  00000-0  45174+0 0  9993
2 16393  64.6799 207.4494 6452064 263.5518 126.5114  2.12399506249633
UTC
Height (km)
Latitude
Longitude
Inclination
Orbital Period

Next 30 passes for location: Hong Kong

Rise time Rise Azimuth (degrees) Set time Set Azimuth (degrees) Duration Max altitude (degrees)

No matching passes for this satellites

PulseSat

PulseSat is the new satellites software and hardware trackering solution by Pulsely.
Satellite Two Line Element Set source: US Air Force Space Command

Download PulseSat for iOS
© 2017 Pulsely Limited